Language: 


Des rapports , des résumés tant et plus, au choix de chacun....


Données statistiques de la station
Quotidien Rapport Janvier 5, 2018 Unités:  Métrique    Anglais   les deux
« Précédent Jour
Suivant Jour »
Quotidien Hebdomadaire Mensuel Annuel Actuel
  Haut: Bas: Moyen:
Température: -17.8 °C -14.6 °C -13.2 °C
Pt de rosée: -17.8 °C -14.4 °C -13.7 °C
Humidité: Humidity % 82 % 92 %
Vitesse du vent: 0 km/h 0 km/h 21.1 km/h
Rafales: 0 km/h - -
Vent:- - SW
Pression: 0 hPa 33660.2 hPa -
Précipitation: 91.44 mm    
Historical Graphs
 
 
Données statistiques pour Janvier 5, 2018
Heure Température Point de rosée Pression Vent Vitesse du vent Refales Humidité Pluie (taux horaire)
-17.8 °C -17.8 °C 0 hPa Calm     Humidity % 0 mm
00:01 -13.1 °C -14.4 °C 33751.6 hPa SW 14.5 km/h 28.5 km/h 83 % 0 mm
00:06 -13.1 °C -14.4 °C 33751.6 hPa WSW 28.5 km/h 28.5 km/h 83 % 0 mm
00:08 -13.1 °C -14.4 °C 33751.6 hPa WSW 14.5 km/h 28.5 km/h 84 % 0 mm
00:14 -13 °C -13.9 °C 33751.6 hPa SW 19.2 km/h 28.5 km/h 85 % 0 mm
00:19 -13 °C -13.9 °C 33751.6 hPa WSW 20.9 km/h 27.2 km/h 85 % 0 mm
00:22 -13 °C -13.9 °C 33751.6 hPa SW 23 km/h 27.2 km/h 86 % 0 mm
00:27 -12.9 °C -13.9 °C 33731.3 hPa WSW 22.5 km/h 28.5 km/h 87 % 0 mm
00:30 -12.9 °C -13.9 °C 33731.3 hPa WSW 16.9 km/h 28.5 km/h 87 % 0 mm
00:35 -12.9 °C -13.9 °C 33731.3 hPa WSW 19.2 km/h 33.2 km/h 88 % 0 mm
00:37 -12.9 °C -13.3 °C 33731.3 hPa WSW 16.9 km/h 33.2 km/h 89 % 0 mm
00:42 -12.9 °C -13.3 °C 33731.3 hPa SSW 14.5 km/h 26.7 km/h 89 % 0 mm
00:45 -12.9 °C -13.3 °C 33731.3 hPa SW 19.6 km/h 26.7 km/h 89 % 0 mm
00:51 -12.9 °C -13.3 °C 33731.3 hPa WSW 19.2 km/h 28.5 km/h 89 % 0 mm
00:53 -12.9 °C -13.3 °C 33731.3 hPa SSW 24.8 km/h 28.5 km/h 89 % 0 mm
00:58 -12.9 °C -13.3 °C 33731.3 hPa WSW 17.4 km/h 28.5 km/h 89 % 0 mm
01:03 -12.9 °C -13.3 °C 33731.3 hPa WSW 16.3 km/h 32.3 km/h 89 % 0 mm
01:08 -12.9 °C -13.9 °C 33731.3 hPa WSW 26.7 km/h 32.3 km/h 90 % 0 mm
01:11 -13 °C -13.9 °C 33731.3 hPa SW 15.6 km/h 32.3 km/h 90 % 0 mm
01:16 -13.1 °C -13.3 °C 33731.3 hPa SSW 22 km/h 31.9 km/h 91 % 7.62 mm
01:21 -13.1 °C -13.9 °C 33731.3 hPa SSW 16.3 km/h 31.9 km/h 92 % 7.62 mm
01:24 -13.2 °C -13.9 °C 33731.3 hPa SSW 31.4 km/h 31.9 km/h 92 % 12.7 mm
01:29 -13.2 °C -13.9 °C 33694.1 hPa SSW 24.3 km/h 31.9 km/h 93 % 20.32 mm
01:34 -13.3 °C -13.9 °C 33694.1 hPa SW 11.1 km/h 31.9 km/h 94 % 33.02 mm
01:35 -13.3 °C -13.9 °C 33694.1 hPa WSW 18.7 km/h 31.9 km/h 94 % 33.02 mm
01:39 -13.3 °C -13.9 °C 33694.1 hPa SW 22 km/h 26.7 km/h 94 % 38.1 mm
01:44 -13.4 °C -13.9 °C 33694.1 hPa SSW 15.6 km/h 22 km/h 95 % 45.72 mm
01:47 -13.4 °C -13.3 °C 33694.1 hPa SSW 9.8 km/h 22 km/h 96 % 45.72 mm
01:52 -13.4 °C -13.9 °C 33694.1 hPa SW 14 km/h 20.3 km/h 96 % 58.42 mm
01:53 -13.4 °C -13.9 °C 33694.1 hPa SSW 22 km/h 22 km/h 96 % 58.42 mm
01:58 -13.4 °C -13.9 °C 33694.1 hPa WSW 14.5 km/h 24.3 km/h 97 % 58.42 mm
02:04 -13.4 °C -13.9 °C 33694.1 hPa SSW 22 km/h 26.2 km/h 97 % 58.42 mm
02:09 -13.4 °C -13.3 °C 33694.1 hPa WSW 26.7 km/h 29 km/h 98 % 58.42 mm
02:11 -13.4 °C -13.3 °C 33660.2 hPa SW 30.7 km/h 31.4 km/h 98 % 58.42 mm
02:16 -13.4 °C -13.3 °C 33660.2 hPa SW 22 km/h 37.5 km/h 98 % 45.72 mm
02:22 -13.3 °C -13.3 °C 33660.2 hPa SW 26.7 km/h 37.5 km/h 98 % 38.1 mm
02:26 -13.3 °C -13.3 °C 33694.1 hPa WSW 22.5 km/h 33.2 km/h 98 % 38.1 mm
02:30 -13.3 °C -13.3 °C 33694.1 hPa WSW 31.9 km/h 33.2 km/h 98 % 33.02 mm
02:35 -13.2 °C -12.8 °C 33694.1 hPa SW 34.1 km/h 34.1 km/h 98 % 20.32 mm
02:38 -13.1 °C -12.8 °C 33694.1 hPa SW 33.2 km/h 44.1 km/h 98 % 20.32 mm
02:43 -13.1 °C -12.8 °C 33694.1 hPa WSW 27.7 km/h 44.6 km/h 98 % 7.62 mm
02:44 -13.1 °C -12.8 °C 33694.1 hPa SW 33.2 km/h 44.6 km/h 98 % 7.62 mm
02:47 -13 °C -12.8 °C 33694.1 hPa WSW 41.7 km/h 46.8 km/h 98 % 7.62 mm
02:51 -12.9 °C -12.8 °C 33694.1 hPa WSW 34.1 km/h 59.1 km/h 98 % 7.62 mm
02:52 -12.9 °C -12.8 °C 33694.1 hPa WSW 51 km/h 59.1 km/h 98 % 7.62 mm
02:58 -12.8 °C -12.8 °C 33660.2 hPa West 51 km/h 63.7 km/h 98 % 7.62 mm
03:01 -12.8 °C -12.8 °C 33660.2 hPa WSW 39.4 km/h 63.7 km/h 98 % 7.62 mm
03:06 -12.7 °C -12.8 °C 33660.2 hPa West 57.9 km/h 63.7 km/h 98 % 7.62 mm
03:11 -12.7 °C -12.8 °C 33660.2 hPa WSW 33.2 km/h 59.1 km/h 98 % 7.62 mm
03:16 -12.7 °C -12.8 °C 33660.2 hPa WSW 41.7 km/h 57.9 km/h 97 % 7.62 mm
03:21 -12.6 °C -12.8 °C 33660.2 hPa WSW 48.6 km/h 57.9 km/h 97 % 7.62 mm
03:26 -12.6 °C -12.8 °C 33694.1 hPa West 28.5 km/h 57.9 km/h 96 % 7.62 mm
03:30 -12.6 °C -12.8 °C 33694.1 hPa West 34.1 km/h 52 km/h 96 % 7.62 mm
03:35 -12.6 °C -12.8 °C 33694.1 hPa WSW 27.7 km/h 45.1 km/h 96 % 7.62 mm
03:39 -12.6 °C -12.8 °C 33694.1 hPa West 32.3 km/h 45.1 km/h 96 % 7.62 mm
03:44 -12.5 °C -12.8 °C 33694.1 hPa WSW 30.7 km/h 41.2 km/h 96 % 7.62 mm
03:46 -12.5 °C -12.8 °C 33694.1 hPa WSW 25.4 km/h 41.2 km/h 96 % 7.62 mm
03:51 -12.5 °C -12.8 °C 33694.1 hPa WSW 39.9 km/h 44.1 km/h 96 % 0 mm
03:53 -12.5 °C -12.8 °C 33694.1 hPa WSW 41.2 km/h 44.1 km/h 96 % 0 mm
03:58 -12.5 °C -12.8 °C 33694.1 hPa WSW 31.4 km/h 49.7 km/h 95 % 0 mm
04:02 -12.5 °C -12.8 °C 33694.1 hPa WSW 34.1 km/h 49.7 km/h 95 % 0 mm
04:07 -12.5 °C -12.8 °C 33694.1 hPa West 43 km/h 51.5 km/h 94 % 0 mm
04:11 -12.5 °C -12.8 °C 33694.1 hPa WSW 28.5 km/h 51.5 km/h 93 % 0 mm
04:14 -12.5 °C -12.8 °C 33694.1 hPa WSW 28.5 km/h 51.5 km/h 93 % 0 mm
04:17 -12.5 °C -12.8 °C 33694.1 hPa WSW 34.1 km/h 53.9 km/h 91 % 0 mm
04:22 -12.5 °C -13.3 °C 33694.1 hPa WSW 36.5 km/h 55.7 km/h 89 % 0 mm
04:24 -12.4 °C -13.3 °C 33694.1 hPa West 29.5 km/h 57.3 km/h 87 % 0 mm
04:29 -12.4 °C -13.3 °C 33694.1 hPa West 44.6 km/h 57.3 km/h 85 % 0 mm
04:30 -12.4 °C -13.3 °C 33694.1 hPa West 27.2 km/h 57.3 km/h 85 % 0 mm
04:35 -12.5 °C -13.9 °C 33694.1 hPa West 26.7 km/h 56.6 km/h 84 % 0 mm
04:36 -12.5 °C -13.9 °C 33694.1 hPa West 42.2 km/h 46.8 km/h 84 % 0 mm
04:41 -12.6 °C -13.9 °C 33694.1 hPa WSW 33.2 km/h 46.8 km/h 82 % 0 mm
04:46 -12.6 °C -13.9 °C 33694.1 hPa West 40.7 km/h 51.5 km/h 82 % 0 mm
04:47 -12.6 °C -13.9 °C 33694.1 hPa West 19.6 km/h 51.5 km/h 82 % 0 mm
04:52 -12.6 °C -13.9 °C 33694.1 hPa West 39.4 km/h 51.5 km/h 82 % 0 mm
04:53 -12.6 °C -13.9 °C 33694.1 hPa West 22 km/h 50.5 km/h 82 % 0 mm
04:59 -12.6 °C -13.9 °C 33694.1 hPa WSW 20.9 km/h 45.9 km/h 82 % 0 mm
05:04 -12.7 °C -13.9 °C 33694.1 hPa West 33.2 km/h 42.2 km/h 83 % 0 mm
05:09 -12.7 °C -13.9 °C 33694.1 hPa West 32.3 km/h 42.2 km/h 83 % 0 mm
05:10 -12.7 °C -13.9 °C 33694.1 hPa WSW 17.9 km/h 42.2 km/h 83 % 0 mm
05:15 -12.7 °C -13.9 °C 33694.1 hPa West 31.9 km/h 38.3 km/h 84 % 0 mm
05:20 -12.6 °C -13.9 °C 33694.1 hPa SW 32.3 km/h 38.3 km/h 84 % 0 mm
05:23 -12.6 °C -13.9 °C 33694.1 hPa WNW 19.6 km/h 38.3 km/h 84 % 0 mm
05:28 -12.7 °C -13.9 °C 33660.2 hPa West 16.9 km/h 33.2 km/h 85 % 0 mm
05:33 -12.7 °C -13.9 °C 33660.2 hPa WSW 22.5 km/h 31.4 km/h 85 % 0 mm
05:36 -12.7 °C -13.9 °C 33660.2 hPa WSW 22.5 km/h 26.2 km/h 85 % 0 mm
05:41 -12.7 °C -13.9 °C 33660.2 hPa West 27.7 km/h 27.7 km/h 86 % 0 mm
05:46 -12.7 °C -13.9 °C 33660.2 hPa West 22 km/h 31.9 km/h 86 % 0 mm
05:47 -12.7 °C -13.9 °C 33660.2 hPa West 19.6 km/h 31.9 km/h 86 % 0 mm
05:53 -12.7 °C -13.9 °C 33660.2 hPa West 15 km/h 31.9 km/h 86 % 0 mm
05:55 -12.8 °C -13.9 °C 33660.2 hPa WSW 20.3 km/h 26.2 km/h 87 % 0 mm
06:00 -12.8 °C -13.9 °C 33694.1 hPa WSW 20.9 km/h 31.9 km/h 87 % 0 mm
06:02 -12.8 °C -13.9 °C 33694.1 hPa WSW 16.3 km/h 31.9 km/h 88 % 0 mm
06:03 -12.8 °C -13.9 °C 33694.1 hPa WSW 16.9 km/h 31.9 km/h 88 % 0 mm
06:08 -12.8 °C -13.3 °C 33694.1 hPa WSW 15 km/h 31.9 km/h 89 % 0 mm
06:14 -12.9 °C -13.3 °C 33694.1 hPa WSW 16.9 km/h 24.8 km/h 89 % 0 mm
06:16 -12.9 °C -13.3 °C 33694.1 hPa WSW 19.2 km/h 24.8 km/h 90 % 0 mm
06:21 -12.9 °C -13.3 °C 33694.1 hPa West 16.9 km/h 24.3 km/h 90 % 0 mm
06:27 -12.9 °C -13.3 °C 33694.1 hPa WSW 19.6 km/h 22 km/h 91 % 0 mm
06:31 -12.9 °C -13.3 °C 33694.1 hPa WSW 16.9 km/h 22 km/h 91 % 0 mm
06:36 -12.9 °C -13.3 °C 33694.1 hPa WSW 16.3 km/h 22 km/h 92 % 0 mm
06:39 -12.9 °C -13.3 °C 33694.1 hPa WSW 14 km/h 22 km/h 92 % 0 mm
06:44 -12.9 °C -13.3 °C 33694.1 hPa WSW 14 km/h 26.7 km/h 92 % 0 mm
06:49 -12.9 °C -13.3 °C 33694.1 hPa WSW 26.7 km/h 33.6 km/h 93 % 0 mm
06:54 -12.9 °C -13.3 °C 33694.1 hPa WSW 20.3 km/h 39.4 km/h 94 % 0 mm
06:59 -13 °C -13.3 °C 33660.2 hPa WSW 20.9 km/h 39.4 km/h 94 % 0 mm
07:03 -13 °C -13.3 °C 33660.2 hPa WSW 19.6 km/h 28.5 km/h 94 % 0 mm
07:08 -13.1 °C -13.3 °C 33660.2 hPa WSW 19.2 km/h 28.5 km/h 94 % 0 mm
07:10 -13.1 °C -13.3 °C 33660.2 hPa WSW 16.3 km/h 28.5 km/h 94 % 0 mm
07:18 -13.2 °C -13.3 °C 33694.1 hPa WSW 15 km/h 22.5 km/h 94 % 0 mm
07:19 -13.2 °C -13.3 °C 33694.1 hPa SSW 15.6 km/h 20.3 km/h 94 % 0 mm
07:24 -13.2 °C -13.3 °C 33694.1 hPa SW 12.2 km/h 16.3 km/h 94 % 0 mm
07:27 -13.2 °C -13.3 °C 33694.1 hPa SW 14.5 km/h 16.3 km/h 94 % 0 mm
07:32 -13.2 °C -13.3 °C 33694.1 hPa Calm   15 km/h 94 % 0 mm
07:35 -13.2 °C -13.3 °C 33694.1 hPa SW 8.9 km/h 14.5 km/h 94 % 0 mm
07:40 -13.2 °C -13.9 °C 33694.1 hPa SW 15 km/h 15 km/h 94 % 0 mm
07:46 -13.2 °C -13.3 °C 33694.1 hPa SW 15 km/h 16.9 km/h 95 % 0 mm
07:51 -13.2 °C -13.3 °C 33694.1 hPa WSW 12.7 km/h 16.9 km/h 95 % 0 mm
07:56 -13.3 °C -13.3 °C 33694.1 hPa SW 10.3 km/h 16.3 km/h 95 % 0 mm
07:57 -13.3 °C -13.3 °C 33694.1 hPa SW 10.3 km/h 16.3 km/h 95 % 0 mm
08:02 -13.3 °C -13.3 °C 33694.1 hPa SSW 12.7 km/h 16.3 km/h 95 % 0 mm
08:04 -13.3 °C -13.3 °C 33694.1 hPa Calm   16.3 km/h 95 % 0 mm
08:09 -13.3 °C -13.3 °C 33694.1 hPa SSW 15 km/h 16.3 km/h 95 % 0 mm
08:14 -13.3 °C -13.3 °C 33694.1 hPa SW 15 km/h 20.3 km/h 95 % 0 mm
08:16 -13.3 °C -13.3 °C 33694.1 hPa SW 9.8 km/h 20.3 km/h 95 % 0 mm
08:21 -13.3 °C -13.3 °C 33694.1 hPa SW 12.7 km/h 20.3 km/h 95 % 0 mm
08:23 -13.3 °C -13.3 °C 33694.1 hPa WSW 16.3 km/h 20.3 km/h 95 % 0 mm
08:24 -13.3 °C -13.3 °C 33694.1 hPa SW 14 km/h 17.4 km/h 95 % 0 mm
08:30 -13.3 °C -13.3 °C 33694.1 hPa SW 11.6 km/h 20.9 km/h 95 % 0 mm
08:35 -13.2 °C -13.3 °C 33694.1 hPa SW 14 km/h 22 km/h 95 % 0 mm
08:36 -13.2 °C -13.3 °C 33694.1 hPa SSW 11.1 km/h 22 km/h 95 % 0 mm
08:37 -13.2 °C -13.3 °C 33694.1 hPa SW 12.7 km/h 22 km/h 95 % 0 mm
08:42 -13.2 °C -13.3 °C 33731.3 hPa SW 15.6 km/h 26.2 km/h 96 % 0 mm
08:47 -13.2 °C -13.3 °C 33731.3 hPa WSW 15.6 km/h 27.2 km/h 96 % 0 mm
08:49 -13.2 °C -13.3 °C 33731.3 hPa SW 19.2 km/h 27.2 km/h 96 % 0 mm
08:54 -13.2 °C -13.3 °C 33731.3 hPa SSW 15.6 km/h 27.2 km/h 96 % 0 mm
08:59 -13.2 °C -13.3 °C 33731.3 hPa SSW 9.3 km/h 20.9 km/h 96 % 0 mm
09:05 -13.2 °C -13.3 °C 33731.3 hPa South 16.3 km/h 19.2 km/h 96 % 0 mm
09:10 -13.2 °C -13.3 °C 33731.3 hPa SW 19.2 km/h 19.2 km/h 97 % 0 mm
09:15 -13.1 °C -13.3 °C 33731.3 hPa SSW 15 km/h 19.6 km/h 97 % 0 mm
09:17 -13.1 °C -13.3 °C 33731.3 hPa WSW 15.6 km/h 20.3 km/h 97 % 0 mm
09:22 -13.1 °C -13.3 °C 33731.3 hPa SW 14.5 km/h 26.2 km/h 97 % 0 mm
09:28 -13.1 °C -13.3 °C 33731.3 hPa SSW 12.7 km/h 26.2 km/h 97 % 0 mm
09:34 -13.1 °C -12.8 °C 33731.3 hPa SW 22.5 km/h 22.5 km/h 97 % 0 mm
09:39 -13.1 °C -12.8 °C 33731.3 hPa WSW 22 km/h 22.5 km/h 96 % 0 mm
09:42 -13.1 °C -12.8 °C 33731.3 hPa SW 12.7 km/h 24.3 km/h 96 % 0 mm
09:47 -13.1 °C -12.8 °C 33731.3 hPa SSW 12.7 km/h 24.3 km/h 96 % 0 mm
09:52 -13.1 °C -12.8 °C 33731.3 hPa SSW 14 km/h 22 km/h 96 % 0 mm
09:54 -13.1 °C -12.8 °C 33731.3 hPa SSW 15 km/h 22 km/h 96 % 0 mm
09:59 -13.1 °C -12.8 °C 33731.3 hPa South 14 km/h 18.7 km/h 96 % 0 mm
10:02 -13.1 °C -12.8 °C 33731.3 hPa SSW 12.7 km/h 20.9 km/h 96 % 0 mm
10:07 -13 °C -12.8 °C 33731.3 hPa SSW 16.3 km/h 20.9 km/h 96 % 0 mm
10:09 -13 °C -12.8 °C 33731.3 hPa SW 11.6 km/h 20.9 km/h 96 % 0 mm
10:14 -13 °C -12.8 °C 33731.3 hPa South 9.3 km/h 22 km/h 96 % 0 mm
10:15 -13 °C -12.8 °C 33731.3 hPa SSW 11.1 km/h 22 km/h 96 % 0 mm
10:20 -12.9 °C -12.8 °C 33731.3 hPa SSW 10.3 km/h 19.2 km/h 96 % 0 mm
10:25 -12.9 °C -12.8 °C 33731.3 hPa SSW 2.9 km/h 15.6 km/h 96 % 0 mm
10:26 -12.9 °C -12.8 °C 33694.1 hPa SSW 9.8 km/h 15.6 km/h 96 % 0 mm
10:33 -12.9 °C -12.8 °C 33694.1 hPa SW 8.9 km/h 22 km/h 95 % 0 mm
10:38 -12.9 °C -12.8 °C 33694.1 hPa SSW 9.8 km/h 22 km/h 95 % 0 mm
10:39 -12.9 °C -12.8 °C 33694.1 hPa SSW 12.7 km/h 22 km/h 95 % 0 mm
10:44 -12.9 °C -12.8 °C 33731.3 hPa SW 7.6 km/h 19.2 km/h 95 % 0 mm
10:46 -12.8 °C -12.8 °C 33731.3 hPa SSW 12.7 km/h 19.2 km/h 95 % 0 mm
10:51 -12.8 °C -12.8 °C 33731.3 hPa SSW 12.2 km/h 17.9 km/h 95 % 0 mm
10:56 -12.8 °C -12.8 °C 33694.1 hPa WSW 16.3 km/h 26.7 km/h 95 % 0 mm
11:02 -12.8 °C -13.3 °C 33694.1 hPa SW 20.9 km/h 27.2 km/h 94 % 0 mm
11:07 -12.8 °C -13.3 °C 33694.1 hPa SW 16.9 km/h 27.2 km/h 94 % 0 mm
11:11 -12.7 °C -13.3 °C 33694.1 hPa SW 19.2 km/h 26.7 km/h 94 % 0 mm
11:16 -12.7 °C -13.3 °C 33731.3 hPa SSW 27.7 km/h 27.7 km/h 94 % 0 mm
11:20 -12.7 °C -12.8 °C 33731.3 hPa SW 18.7 km/h 27.7 km/h 93 % 0 mm
11:25 -12.7 °C -12.8 °C 33731.3 hPa SSW 26.7 km/h 27.7 km/h 93 % 0 mm
11:29 -12.6 °C -12.8 °C 33731.3 hPa SSW 14.5 km/h 31.9 km/h 93 % 0 mm
11:38 -12.6 °C -13.3 °C 33731.3 hPa SW 15 km/h 22 km/h 92 % 0 mm
11:43 -12.6 °C -13.3 °C 33731.3 hPa SSW 22 km/h 25.4 km/h 92 % 0 mm
11:45 -12.6 °C -13.3 °C 33731.3 hPa SSW 16.3 km/h 25.4 km/h 92 % 0 mm
11:50 -12.6 °C -13.3 °C 33731.3 hPa SSW 26.7 km/h 28.5 km/h 91 % 0 mm
11:55 -12.5 °C -12.8 °C 33731.3 hPa SSW 15.6 km/h 28.5 km/h 91 % 0 mm
12:00 -12.4 °C -12.8 °C 33694.1 hPa SSW 20.3 km/h 27.7 km/h 91 % 0 mm
12:04 -12.4 °C -12.8 °C 33694.1 hPa SW 22 km/h 27.7 km/h 91 % 0 mm
12:09 -12.4 °C -13.3 °C 33694.1 hPa SW 19.2 km/h 33.6 km/h 90 % 0 mm
12:11 -12.4 °C -13.3 °C 33694.1 hPa SW 22 km/h 33.6 km/h 90 % 0 mm
12:16 -12.4 °C -13.3 °C 33694.1 hPa SW 22.5 km/h 33.6 km/h 90 % 0 mm
12:17 -12.4 °C -13.3 °C 33694.1 hPa SW 15.6 km/h 33.6 km/h 90 % 0 mm
12:22 -12.3 °C -13.3 °C 33694.1 hPa SSW 14 km/h 30.7 km/h 89 % 0 mm
12:27 -12.3 °C -12.8 °C 33694.1 hPa SSW 16.9 km/h 30.7 km/h 89 % 0 mm
12:28 -12.3 °C -12.8 °C 33694.1 hPa SSW 19.2 km/h 30.7 km/h 89 % 0 mm
12:33 -12.3 °C -12.8 °C 33694.1 hPa SSW 22 km/h 29.5 km/h 89 % 0 mm
12:38 -12.3 °C -13.3 °C 33694.1 hPa SSW 20.9 km/h 34.1 km/h 88 % 0 mm
12:43 -12.3 °C -13.3 °C 33694.1 hPa SW 20.3 km/h 34.1 km/h 88 % 0 mm
12:48 -12.3 °C -13.3 °C 33694.1 hPa SSW 27.2 km/h 31.9 km/h 88 % 0 mm
12:53 -12.3 °C -13.3 °C 33694.1 hPa WSW 39.4 km/h 39.4 km/h 87 % 0 mm
12:58 -12.3 °C -13.3 °C 33694.1 hPa SSW 15 km/h 39.4 km/h 87 % 0 mm
13:01 -12.3 °C -13.3 °C 33694.1 hPa SW 31.4 km/h 39.4 km/h 87 % 0 mm
13:07 -12.3 °C -13.3 °C 33694.1 hPa SW 28.5 km/h 34.8 km/h 87 % 0 mm
13:12 -12.2 °C -13.3 °C 33660.2 hPa SSW 19.2 km/h 34.1 km/h 87 % 0 mm
13:17 -12.2 °C -13.3 °C 33660.2 hPa SSW 27.7 km/h 33.2 km/h 86 % 0 mm
13:22 -12.2 °C -13.3 °C 33660.2 hPa WSW 27.2 km/h 33.2 km/h 86 % 0 mm
13:28 -12.3 °C -13.3 °C 33694.1 hPa WSW 19.6 km/h 34.1 km/h 86 % 0 mm
13:33 -12.3 °C -13.3 °C 33694.1 hPa SW 31.9 km/h 31.9 km/h 87 % 0 mm
13:38 -12.3 °C -13.3 °C 33694.1 hPa WSW 26.7 km/h 33.6 km/h 87 % 0 mm
13:39 -12.3 °C -13.3 °C 33694.1 hPa SSW 18.7 km/h 33.6 km/h 86 % 0 mm
13:44 -12.2 °C -13.3 °C 33694.1 hPa SW 20.3 km/h 38.3 km/h 86 % 0 mm
13:49 -12.2 °C -13.3 °C 33694.1 hPa SW 31.9 km/h 38.3 km/h 85 % 0 mm
13:54 -12.2 °C -13.3 °C 33694.1 hPa SW 26.2 km/h 33.2 km/h 85 % 0 mm
13:59 -12.2 °C -13.3 °C 33694.1 hPa SW 22.5 km/h 33.2 km/h 85 % 0 mm
14:04 -12.2 °C -13.3 °C 33694.1 hPa SW 22 km/h 41.2 km/h 84 % 0 mm
14:09 -12.2 °C -13.3 °C 33694.1 hPa WSW 20.9 km/h 41.2 km/h 84 % 0 mm
14:14 -12.2 °C -13.3 °C 33694.1 hPa WSW 22 km/h 34.1 km/h 84 % 0 mm
14:19 -12.3 °C -13.3 °C 33694.1 hPa WSW 28.5 km/h 35.2 km/h 84 % 0 mm
14:23 -12.3 °C -13.3 °C 33694.1 hPa SSW 31.9 km/h 37.5 km/h 85 % 0 mm
14:28 -12.3 °C -13.3 °C 33694.1 hPa SW 33.6 km/h 39.4 km/h 85 % 0 mm
14:33 -12.4 °C -13.3 °C 33694.1 hPa WSW 40.7 km/h 49.2 km/h 86 % 0 mm
14:38 -12.5 °C -13.3 °C 33694.1 hPa WSW 33.6 km/h 61.3 km/h 86 % 0 mm
14:42 -12.6 °C -13.3 °C 33694.1 hPa SW 34.1 km/h 61.3 km/h 87 % 0 mm
14:47 -12.6 °C -13.3 °C 33694.1 hPa WSW 26.2 km/h 51.5 km/h 88 % 0 mm
14:50 -12.7 °C -13.3 °C 33694.1 hPa WSW 25.4 km/h 45.1 km/h 88 % 0 mm
14:55 -12.7 °C -13.3 °C 33694.1 hPa WSW 27.7 km/h 36.5 km/h 89 % 0 mm
14:57 -12.7 °C -13.3 °C 33694.1 hPa SW 22.5 km/h 36.5 km/h 89 % 0 mm
15:02 -12.7 °C -13.3 °C 33694.1 hPa SW 25.4 km/h 34.1 km/h 90 % 0 mm
15:07 -12.7 °C -13.3 °C 33694.1 hPa WSW 24.8 km/h 34.1 km/h 90 % 0 mm
15:12 -12.7 °C -13.3 °C 33694.1 hPa SSW 19.6 km/h 39.4 km/h 90 % 0 mm
15:15 -12.7 °C -13.3 °C 33694.1 hPa WSW 19.6 km/h 39.4 km/h 91 % 0 mm
15:21 -12.8 °C -13.3 °C 33694.1 hPa SW 19.6 km/h 38.3 km/h 91 % 0 mm
15:24 -12.8 °C -13.3 °C 33694.1 hPa SW 24.8 km/h 28.5 km/h 91 % 0 mm
15:29 -12.8 °C -13.3 °C 33694.1 hPa WSW 22 km/h 39.4 km/h 91 % 0 mm
15:34 -12.8 °C -13.3 °C 33694.1 hPa WSW 27.7 km/h 39.4 km/h 91 % 0 mm
15:39 -12.8 °C -13.3 °C 33694.1 hPa SW 20.9 km/h 43 km/h 91 % 0 mm
15:44 -12.8 °C -13.3 °C 33694.1 hPa WSW 19.6 km/h 43 km/h 91 % 0 mm
15:50 -12.8 °C -13.3 °C 33694.1 hPa WSW 18.7 km/h 38.3 km/h 91 % 0 mm
15:54 -12.8 °C -13.3 °C 33694.1 hPa SW 19.6 km/h 38.3 km/h 90 % 0 mm
15:59 -12.8 °C -13.3 °C 33694.1 hPa WSW 20.9 km/h 34.1 km/h 90 % 0 mm
16:05 -12.8 °C -13.3 °C 33694.1 hPa SSW 27.2 km/h 27.2 km/h 90 % 0 mm
16:10 -12.8 °C -13.3 °C 33694.1 hPa WSW 20.3 km/h 32.3 km/h 90 % 0 mm
16:15 -12.9 °C -13.9 °C 33694.1 hPa SW 20.9 km/h 32.3 km/h 89 % 0 mm
16:20 -13.1 °C -13.9 °C 33694.1 hPa WSW 19.6 km/h 27.2 km/h 89 % 0 mm
16:25 -13.1 °C -13.9 °C 33694.1 hPa WSW 20.3 km/h 27.7 km/h 89 % 0 mm
16:30 -13.2 °C -13.9 °C 33731.3 hPa SW 19.6 km/h 27.7 km/h 89 % 0 mm
16:32 -13.2 °C -13.9 °C 33731.3 hPa SW 22.5 km/h 27.7 km/h 89 % 0 mm
16:43 -13.3 °C -13.9 °C 33731.3 hPa SW 14 km/h 33.2 km/h 90 % 0 mm
16:48 -13.4 °C -13.9 °C 33731.3 hPa WSW 15 km/h 33.2 km/h 91 % 0 mm
16:51 -13.4 °C -13.9 °C 33731.3 hPa WSW 22 km/h 23.8 km/h 91 % 0 mm
16:53 -13.4 °C -14.4 °C 33731.3 hPa WSW 19.6 km/h 23.8 km/h 91 % 0 mm
16:58 -13.4 °C -14.4 °C 33751.6 hPa WSW 19.6 km/h 24.8 km/h 92 % 0 mm
17:03 -13.4 °C -13.9 °C 33751.6 hPa WSW 20.9 km/h 27.2 km/h 93 % 0 mm
17:08 -13.4 °C -13.9 °C 33751.6 hPa WSW 18.7 km/h 27.2 km/h 93 % 0 mm
17:10 -13.4 °C -13.9 °C 33751.6 hPa WSW 19.2 km/h 26.2 km/h 93 % 0 mm
17:14 -13.4 °C -13.9 °C 33751.6 hPa SW 16.3 km/h 26.2 km/h 93 % 0 mm
17:19 -13.4 °C -13.9 °C 33751.6 hPa WSW 19.2 km/h 27.2 km/h 93 % 0 mm
17:24 -13.4 °C -13.9 °C 33751.6 hPa WSW 20.3 km/h 27.2 km/h 93 % 0 mm
17:29 -13.4 °C -13.9 °C 33751.6 hPa West 18.7 km/h 26.7 km/h 93 % 7.62 mm
17:30 -13.4 °C -13.9 °C 33751.6 hPa West 16.9 km/h 23.8 km/h 93 % 7.62 mm
17:35 -13.6 °C -13.9 °C 33751.6 hPa WSW 27.2 km/h 38.3 km/h 93 % 12.7 mm
17:38 -13.7 °C -14.4 °C 33751.6 hPa WSW 26.7 km/h 38.3 km/h 92 % 12.7 mm
17:43 -13.8 °C -14.4 °C 33751.6 hPa WSW 33.6 km/h 41.2 km/h 92 % 20.32 mm
17:44 -13.8 °C -14.4 °C 33751.6 hPa WSW 28.5 km/h 41.2 km/h 92 % 20.32 mm
17:49 -13.9 °C -14.4 °C 33751.6 hPa WSW 29 km/h 43 km/h 93 % 20.32 mm
17:51 -13.9 °C -14.4 °C 33751.6 hPa West 31.9 km/h 43 km/h 93 % 20.32 mm
17:56 -14 °C -14.4 °C 33751.6 hPa WSW 33.2 km/h 51 km/h 95 % 20.32 mm
17:59 -14 °C -14.4 °C 33751.6 hPa WSW 26.2 km/h 51 km/h 95 % 20.32 mm
18:04 -14.1 °C -14.4 °C 33751.6 hPa WSW 19.2 km/h 44.1 km/h 95 % 20.32 mm
18:06 -14.1 °C -14.4 °C 33751.6 hPa WSW 19.2 km/h 37.5 km/h 95 % 20.32 mm
18:11 -14.2 °C -14.4 °C 33751.6 hPa WSW 26.2 km/h 32.3 km/h 95 % 20.32 mm
18:14 -14.2 °C -14.4 °C 33751.6 hPa WSW 20.3 km/h 32.3 km/h 95 % 20.32 mm
18:20 -14.2 °C -14.4 °C 33751.6 hPa WSW 19.6 km/h 29 km/h 95 % 20.32 mm
18:25 -14.3 °C -14.4 °C 33751.6 hPa SW 20.9 km/h 31.4 km/h 95 % 20.32 mm
18:30 -14.3 °C -14.4 °C 33751.6 hPa WSW 14.5 km/h 31.4 km/h 95 % 12.7 mm
18:35 -14.3 °C -14.4 °C 33751.6 hPa WSW 28.5 km/h 28.5 km/h 95 % 7.62 mm
18:40 -14.3 °C -14.4 °C 33751.6 hPa WSW 27.7 km/h 35.2 km/h 96 % 0 mm
18:44 -14.3 °C -14.4 °C 33751.6 hPa WSW 27.7 km/h 35.2 km/h 96 % 0 mm
18:49 -14.2 °C -14.4 °C 33751.6 hPa WSW 25.4 km/h 35.2 km/h 96 % 0 mm
18:50 -14.2 °C -14.4 °C 33751.6 hPa SSW 20.3 km/h 33.6 km/h 96 % 0 mm
18:55 -14.2 °C -14.4 °C 33751.6 hPa WSW 33.6 km/h 33.6 km/h 96 % 0 mm
18:57 -14.2 °C -14.4 °C 33788.9 hPa WSW 26.2 km/h 33.6 km/h 96 % 0 mm
19:02 -14.2 °C -14.4 °C 33788.9 hPa WSW 26.7 km/h 33.6 km/h 96 % 0 mm
19:07 -14.2 °C -14.4 °C 33788.9 hPa SW 16.9 km/h 31.4 km/h 95 % 0 mm
19:12 -14.2 °C -14.4 °C 33788.9 hPa SW 20.3 km/h 27.7 km/h 95 % 0 mm
19:17 -14.3 °C -14.4 °C 33788.9 hPa SSW 19.6 km/h 27.7 km/h 95 % 0 mm
19:22 -14.3 °C -14.4 °C 33788.9 hPa SW 19.6 km/h 24.3 km/h 95 % 0 mm
19:27 -14.3 °C -14.4 °C 33788.9 hPa SW 20.3 km/h 29.5 km/h 95 % 0 mm
19:32 -14.3 °C -14.4 °C 33788.9 hPa WSW 22 km/h 31.9 km/h 94 % 0 mm
19:37 -14.3 °C -14.4 °C 33788.9 hPa SW 20.9 km/h 31.9 km/h 94 % 0 mm
19:42 -14.2 °C -14.4 °C 33788.9 hPa WSW 26.2 km/h 34.1 km/h 94 % 0 mm
19:43 -14.2 °C -14.4 °C 33788.9 hPa SW 26.2 km/h 34.1 km/h 94 % 0 mm
19:48 -14.2 °C -14.4 °C 33788.9 hPa SW 32.3 km/h 34.1 km/h 94 % 0 mm
19:58 -14.2 °C -14.4 °C 33788.9 hPa WSW 19.6 km/h 33.2 km/h 94 % 0 mm
20:03 -14.2 °C -14.4 °C 33788.9 hPa SW 16.9 km/h 33.2 km/h 94 % 7.62 mm
20:04 -14.2 °C -14.4 °C 33788.9 hPa SW 19.6 km/h 33.2 km/h 94 % 7.62 mm
20:09 -14.2 °C -14.4 °C 33788.9 hPa SW 27.2 km/h 34.1 km/h 94 % 7.62 mm
20:11 -14.2 °C -14.4 °C 33788.9 hPa SW 26.7 km/h 34.1 km/h 94 % 7.62 mm
20:16 -14.2 °C -14.4 °C 33788.9 hPa SSW 20.3 km/h 34.1 km/h 94 % 7.62 mm
20:20 -14.2 °C -14.4 °C 33788.9 hPa WSW 20.3 km/h 33.6 km/h 94 % 7.62 mm
20:26 -14.2 °C -14.4 °C 33822.8 hPa SW 28.5 km/h 28.5 km/h 94 % 7.62 mm
20:27 -14.2 °C -14.4 °C 33822.8 hPa SW 20.9 km/h 28.5 km/h 94 % 7.62 mm
20:32 -14.2 °C -14.4 °C 33822.8 hPa SW 15.6 km/h 28.5 km/h 94 % 7.62 mm
20:34 -14.2 °C -14.4 °C 33822.8 hPa SW 15 km/h 28.5 km/h 94 % 7.62 mm
20:36 -14.2 °C -14.4 °C 33822.8 hPa SSW 18.7 km/h 26.7 km/h 95 % 7.62 mm
20:41 -14.2 °C -14.4 °C 33822.8 hPa SSW 19.6 km/h 27.2 km/h 95 % 7.62 mm
20:42 -14.2 °C -14.4 °C 33822.8 hPa SW 25.4 km/h 27.2 km/h 95 % 7.62 mm
20:47 -14.2 °C -14.4 °C 33822.8 hPa SSW 20.3 km/h 27.2 km/h 95 % 7.62 mm
20:52 -14.2 °C -14.4 °C 33822.8 hPa WSW 20.3 km/h 23 km/h 95 % 7.62 mm
21:02 -14.2 °C -14.4 °C 33856.6 hPa SW 23.8 km/h 27.2 km/h 96 % 0 mm
21:07 -14.2 °C -14.4 °C 33856.6 hPa SSW 20.3 km/h 31.4 km/h 96 % 0 mm
21:11 -14.2 °C -14.4 °C 33856.6 hPa WSW 19.2 km/h 31.4 km/h 96 % 0 mm
21:16 -14.2 °C -14.4 °C 33788.9 hPa SSW 16.9 km/h 31.4 km/h 96 % 0 mm
21:21 -14.2 °C -14.4 °C 33788.9 hPa SW 15.6 km/h 27.2 km/h 96 % 0 mm
21:25 -14.2 °C -14.4 °C 33788.9 hPa SW 15.6 km/h 26.7 km/h 96 % 0 mm
21:30 -14.2 °C -14.4 °C 33822.8 hPa SSW 20.3 km/h 26.2 km/h 96 % 0 mm
21:35 -14.3 °C -14.4 °C 33822.8 hPa SSW 16.3 km/h 24.8 km/h 96 % 0 mm
21:40 -14.3 °C -14.4 °C 33822.8 hPa SW 15.6 km/h 20.9 km/h 96 % 0 mm
21:43 -14.4 °C -14.4 °C 33822.8 hPa Calm   20.9 km/h 96 % 0 mm
21:48 -14.4 °C -14.4 °C 33822.8 hPa SW 12.7 km/h 20.9 km/h 96 % 0 mm
21:51 -14.4 °C -14.4 °C 33822.8 hPa SSW 12.2 km/h 22 km/h 96 % 0 mm
21:58 -14.4 °C -14.4 °C 33822.8 hPa SSW 14 km/h 22.5 km/h 97 % 0 mm
22:03 -14.4 °C -14.4 °C 33822.8 hPa SW 16.3 km/h 22.5 km/h 97 % 0 mm
22:08 -14.3 °C -14.4 °C 33822.8 hPa SW 19.2 km/h 27.2 km/h 97 % 0 mm
22:12 -14.3 °C -14.4 °C 33856.6 hPa WSW 14 km/h 27.2 km/h 97 % 0 mm
22:13 -14.3 °C -14.4 °C 33856.6 hPa SW 15 km/h 27.2 km/h 97 % 0 mm
22:18 -14.3 °C -14.4 °C 33856.6 hPa SW 15 km/h 22 km/h 97 % 0 mm
22:21 -14.2 °C -14.4 °C 33856.6 hPa SW 19.6 km/h 22 km/h 97 % 0 mm
22:26 -14.2 °C -14.4 °C 33856.6 hPa SSW 20.3 km/h 20.3 km/h 97 % 0 mm
22:30 -14.2 °C -14.4 °C 33856.6 hPa WSW 14.5 km/h 29 km/h 97 % 0 mm
22:35 -14.2 °C -14.4 °C 33856.6 hPa SSW 19.2 km/h 29 km/h 97 % 0 mm
22:36 -14.2 °C -14.4 °C 33856.6 hPa SSW 15.6 km/h 29 km/h 97 % 0 mm
22:41 -14.2 °C -14.4 °C 33890.5 hPa SW 15.6 km/h 24.8 km/h 97 % 0 mm
22:46 -14.2 °C -14.4 °C 33890.5 hPa WSW 16.3 km/h 22.5 km/h 97 % 0 mm
22:49 -14.2 °C -14.4 °C 33890.5 hPa SW 10.3 km/h 22.5 km/h 97 % 0 mm
22:54 -14.2 °C -14.4 °C 33890.5 hPa SW 15.6 km/h 20.3 km/h 96 % 0 mm
22:56 -14.2 °C -14.4 °C 33856.6 hPa SW 16.9 km/h 20.3 km/h 96 % 0 mm
23:01 -14.2 °C -14.4 °C 33856.6 hPa SW 14 km/h 20.3 km/h 96 % 0 mm
23:06 -14.2 °C -14.4 °C 33856.6 hPa SW 14.5 km/h 22 km/h 96 % 0 mm
23:09 -14.2 °C -14.4 °C 33856.6 hPa WSW 14 km/h 22 km/h 96 % 0 mm
23:14 -14.2 °C -14.4 °C 33890.5 hPa SSW 20.3 km/h 22.5 km/h 96 % 0 mm
23:17 -14.2 °C -14.4 °C 33890.5 hPa SW 16.9 km/h 22.5 km/h 96 % 0 mm
23:22 -14.3 °C -14.4 °C 33890.5 hPa SSW 16.9 km/h 22.5 km/h 96 % 0 mm
23:23 -14.3 °C -14.4 °C 33890.5 hPa WSW 15 km/h 22.5 km/h 96 % 0 mm
23:28 -14.3 °C -14.4 °C 33890.5 hPa West 9.8 km/h 24.8 km/h 95 % 0 mm
23:33 -14.3 °C -14.4 °C 33890.5 hPa SSW 10.3 km/h 24.8 km/h 95 % 0 mm
23:34 -14.4 °C -14.4 °C 33890.5 hPa SSW 9.3 km/h 24.8 km/h 95 % 0 mm
23:35 -14.4 °C -14.4 °C 33890.5 hPa South 11.1 km/h 16.3 km/h 95 % 0 mm
23:40 -14.4 °C -14.4 °C 33890.5 hPa WSW 15 km/h 22 km/h 95 % 0 mm
23:46 -14.5 °C -14.4 °C 33890.5 hPa Calm   22 km/h 95 % 0 mm
23:48 -14.5 °C -14.4 °C 33890.5 hPa SSW 15.6 km/h 22 km/h 95 % 0 mm
23:53 -14.6 °C -14.4 °C 33890.5 hPa South 12.7 km/h 16.3 km/h 95 % 0 mm
Le Gheer Warneton
Courtoisie de Weather Underground - 2.5 mb

Mise a jour : 21/02/2018 02:28:11
Généré par Cumulus 1.9.4 (1099)